Location: Gloden
(48.4833°N, 15.3167°E)
Time: 03:16:15
(UTC+00:00)

CUTE-I - Pass Details

Date: 30 November 2022
Orbit: 809 x 824 km, 98.7° (Epoch: 30 January)

Event Time Altitude Azimuth Distance (km) Brightness Sun altitude
Rises 17:05:04 0° 189° (S) 3,320 ? -18.9°
Reaches altitude 10° 17:07:35 10° 199° (SSW) 2,395 ? -19.3°
Maximum altitude 17:12:24 35° 264° (W) 1,298 ? -20.1°
Drops below altitude 10° 17:17:17 10° 330° (NNW) 2,420 ? -20.9°
Sets 17:19:51 0° 339° (NNW) 3,360 ? -21.3°
